User: anonymous   Login
Location: Holyhead Bay
(53.3667°N, 4.6667°W)
Time: 23:09:43
(UTC+00:00)
Language:

deb Kosmos-2227 - Orbit

View from above orbital plane
View from above orbital plane
View from above satellite
View from above satellite

Ground track
Ground track

The orbit data is extracted from the following two-line orbital elements,

1 22438U 92093EF  21175.58396786  .00004525  00000-0  48657-3 0  9999
2 22438  71.3273   6.6674 0030871  24.7925  31.7308 14.88731162488880
Epoch (UTC): 24 June 2021 14:00:54
Eccentricity: 0.0030871
inclination: 71.3273°
perigee height: 580 km
apogee height: 623 km
right ascension of ascending node: 6.6674°
argument of perigee: 24.7925°
revolutions per day: 14.88731162
mean anomaly at epoch: 31.7308°
orbit number at epoch: 48888

The dashed part of the orbit path shows where the satellite is in the earth's shadow,  

DLR